Regional Weather Roundup
Issued by NWS Newport/Morehead, NC

Current Version | Previous Version | Graphics & Text | Print | Product List | Glossary Off
Versions: 1 2 3 4 5 6 7 8 9 10 11 12 13 14 15 16 17 18 19 20 21 22 23 24 25 26 27 28 29 30 31 32 33 34 35 36 37 38 39 40 41 42 43 44 45 46 47 48 49 50

000
ASUS42 KMHX 191210
RWRMHX
WEATHER ROUNDUP FOR EASTERN NORTH CAROLINA
NATIONAL WEATHER SERVICE NEWPORT/MOREHEAD CITY NC
700 AM EST FRI DEC 19 2014

NOTE: "FAIR" INDICATES FEW OR NO CLOUDS BELOW 12,000 FEET
WITH NO SIGNIFICANT WEATHER AND/OR OBSTRUCTIONS TO VISIBILITY

NCZ015>017-031-032-045>047-102-103-191300-
NORTH COAST

CITY           SKY/WX    TMP DP  RH WIND       PRES   REMARKS
EDENTON          N/A     31  29  93 CALM      30.14R
ELIZABETH CITY CLEAR     32  26  78 NW5       30.13R
KITTY HAWK     SUNNY     38  33  81 NW3       30.10R
MANTEO         CLEAR     37  33  84 N3        30.11R

$$

NCZ045>047-081-094-103-104-191300-
CENTRAL COAST

CITY           SKY/WX    TMP DP  RH WIND       PRES   REMARKS
FRISCO         CLEAR     43  36  76 NW6       30.11R
SWANQUARTER      N/A     34 N/A N/A N2        30.09R

$$

NCZ095-097-098-100-101-191300-
SOUTHERN COAST

CITY           SKY/WX    TMP DP  RH WIND       PRES   REMARKS
BEAUFORT       MOCLDY    42  35  76 NW9       30.13R
CEDAR ISLAND     N/A     43 N/A N/A W8        30.15R
JACKSONVILLE   PTCLDY    32  31  96 CALM      30.12R
PINEY ISLAND   MOSUNNY   42  34  73 NW5       30.12R
WILMINGTON     CLEAR     35  33  92 CALM      30.13R


$$

NCZ011>013-027>030-043-044-078>080-089-090>093-098-191300-
COASTAL PLAIN

CITY           SKY/WX    TMP DP  RH WIND       PRES   REMARKS
AHOSKIE        CLEAR     26  25  96 CALM      30.15R
CLINTON        PTCLDY    36  36  99 CALM      30.14S
ELIZABETHTOWN  CLEAR     36  32  87 CALM      30.14R
GOLDSBORO      CLOUDY    38  37  98 CALM      30.12R
GREENVILLE     MOCLDY    32  32 100 CALM      30.15R FOG
HAVELOCK       MOCLDY    38  32  79 CALM      30.13R
KENANSVILLE    MOCLDY    32  32  99 CALM      30.14R
KINSTON        CLOUDY    36  36 100 CALM      30.14R
NEW BERN       CLEAR     34  31  88 S3        30.14R
RICHLANDS      PTCLDY    34  30  86 CALM      30.14R
ROCKY MOUNT    CLOUDY    37  31  78 N5        30.14R
WASHINGTON     PTCLDY    32  31  95 CALM      30.14R
WHITEVILLE     PTCLDY    33  32  96 CALM      30.12R

$$

AMZ130-135-150-152-154-156-158-170-250-252-270-ANZ085-086-088-633-658-670-191300-
MARINE OBSERVATIONS

STATION/POSITION TIME  TEMP    WIND        PRES    WAVE   SWELL
                       AIR SEA DIR/SP/G            HT/PER HT/PER
                 (UTC) (F)     (DEG/KT/KT) (MB)    (FT/S) (FT/S)
CHESAPEAKE LIGHT 1100   39     340/ 13/ 14 1019.7
64 E VA BEACH    1200   44 55  320/ 12/ 16 1018.4    3/ 5   2/11
DUCK             1200   42 47   10/  8/ 10 1018.5
2 E DUCK         1200      48                N/A     2/ 5
10 NE DUCK       1200      51                N/A     2/ 6
OREGON INLET     1200   39 50  330/  5/  5 1019.3
13E OREGON INLT  1200      53                N/A     2/ 5
HATTERAS CG      1200   46 54  320/ 10/ 10 1019.7
DIAMOND BUOY     1200   47                 1019.6    2/ 6
17 S OCRACOKE    NOT AVBL
CAPE LOOKOUT     1100   49     330/ 10/ 12 1019.0
BEAUFORT LAB     1200   43 53  330/  5/  9 1018.8
30 SE NEW RIVER  1200   52 61  350/ 12/ 14 1019.9    2/ 9   2/ 9
5 SE WRIGHTSVLE  NOT AVBL
225 S CAPE HAT   1133   69 72  310/ 10/ 12 1017.7    3/ 9   3/ 9
41 SE CHARLESTON 1200   60 72  330/  6/  8 1018.8    2/10   2/10

$$


USA.gov is the U.S. government's official web portal to all federal, state and local government web resources and services.